Tracking 19795 objects as of 20-Jul-2019
HD Live streaming from Space Station
objects crossing your sky now

THORAD DELTA 1 DEB

Track THORAD DELTA 1 DEB now!
10-day predictions


NORAD ID: 10392
Int'l Code: 1974-089EH
Perigee: 1,390.7 km
Apogee: 1,468.8 km
Inclination: 101.6 °
Period: 114.3 minutes
Semi major axis: 7800 km
RCS: 0.0162 m2 (small)
Launch date: November 15, 1974
Source: United States (US)
Launch site: AIR FORCE WESTERN TEST RANGE (AFWTR)

Note: This is SATELLITE DEBRIS
aabbcc
Your satellite tracking list
Your tracking list is empty




NASA's NSSDC Master Catalog

Two Line Element Set (TLE):
1 10392U 74089EH  19200.67939421 -.00000021 +00000-0 +13863-3 0  9994
2 10392 101.5604 273.7165 0050082 231.2010 284.4019 12.60078011056813
Source of the keplerian elements: AFSPC